N7DTY Weather Reports


time (UTC)temp
F
wind
direction
speed
knots
gust
knots
rain 1hr
in
rain 24hr
in
rain mn
in
humidity
%
barometer
mb
20260905124510 54 259 0.0 0.9 0.00 0.00 0.00 94 1017.1
20260905123006 54 259 0.0 0.0 0.00 0.00 0.00 93 1017.0
20260905121502 54 259 0.0 0.0 0.00 0.00 0.00 93 1016.9
20260905120002 54 259 0.0 0.9 0.00 0.00 0.00 93 1016.8
20260905114501 54 259 0.9 1.7 0.00 0.00 0.00 93 1016.8
20260905113100 54 259 0.0 0.0 0.00 0.00 0.00 93 1016.9
20260905113001 54 259 0.0 0.9 0.00 0.00 0.00 93 1016.8
20260905111600 54 259 0.9 1.7 0.00 0.00 0.00 93 1016.9
20260905110111 54 259 0.0 1.7 0.00 0.00 0.00 93 1016.8
20260905104559 54 258 0.0 0.0 0.00 0.00 0.00 93 1016.6
20260905103059 53 258 0.0 0.0 0.00 0.00 0.00 93 1016.7
20260905101607 53 258 0.0 0.0 0.00 0.00 0.00 92 1016.7
20260905100057 54 258 0.0 0.0 0.00 0.00 0.00 92 1016.5
20260905094555 54 258 0.0 0.0 0.00 0.00 0.00 92 1016.5
20260905093057 54 258 0.0 0.0 0.00 0.00 0.00 92 1016.6
20260905091603 54 258 0.0 0.0 0.00 0.00 0.00 92 1016.5
20260905090051 54 258 0.0 0.9 0.00 0.00 0.00 92 1016.4
20260905084550 54 258 0.0 0.9 0.00 0.00 0.00 92 1016.3
20260905083049 54 258 0.0 0.9 0.00 0.00 0.00 92 1016.3
20260905081548 54 258 0.0 0.9 0.00 0.00 0.00 91 1016.3
20260905080050 54 258 0.0 0.0 0.00 0.00 0.00 91 1016.3
20260905074546 55 258 0.0 0.0 0.00 0.00 0.00 91 1016.2
20260905073044 55 258 0.0 0.0 0.00 0.00 0.00 91 1016.4
20260905071543 55 258 0.0 0.0 0.00 0.00 0.00 90 1016.2
20260905070044 55 258 0.0 0.0 0.00 0.00 0.00 91 1016.1
20260905064543 55 258 0.0 0.0 0.00 0.00 0.00 90 1015.9
20260905063041 56 258 0.0 0.9 0.00 0.00 0.00 90 1015.8
20260905061538 56 258 0.0 0.0 0.00 0.00 0.00 91 1015.6
20260905060038 56 258 0.0 0.9 0.00 0.00 0.00 90 1015.7
20260905054549 56 258 0.0 0.9 0.00 0.00 0.00 90 1015.8
20260905053036 56 258 0.0 0.0 0.00 0.00 0.00 90 1015.8
20260905051536 56 258 0.0 0.9 0.00 0.00 0.00 90 1015.9
20260905050034 56 258 0.0 0.0 0.00 0.00 0.00 90 1015.9
20260905044535 56 258 0.0 0.0 0.00 0.00 0.00 89 1016.1
20260905043034 56 258 0.0 0.0 0.00 0.00 0.00 89 1016.0
20260905041533 56 258 0.0 0.0 0.00 0.00 0.00 88 1015.9
20260905040041 57 258 0.0 0.0 0.00 0.00 0.00 87 1015.9
20260905034533 57 258 0.0 0.0 0.00 0.00 0.00 85 1015.7
20260905033031 58 258 0.0 0.0 0.00 0.00 0.00 84 1015.6
20260905031530 58 258 0.0 0.0 0.00 0.00 0.00 82 1015.4
20260905030028 59 258 0.0 0.0 0.00 0.00 0.00 81 1015.2
20260905024526 60 258 0.0 0.0 0.00 0.00 0.00 80 1014.8
20260905023026 61 258 0.0 0.9 0.00 0.00 0.00 79 1014.8
20260905021525 61 256 0.0 0.0 0.00 0.00 0.00 80 1014.7
20260905020028 62 256 0.0 0.9 0.00 0.00 0.00 80 1014.7
20260905014521 63 257 0.0 3.5 0.00 0.00 0.00 77 1014.5
20260905013020 64 244 0.0 0.9 0.00 0.00 0.00 68 1014.4
20260905011520 65 346 0.9 2.6 0.00 0.00 0.00 66 1014.3
20260905010022 65 291 0.0 2.6 0.00 0.00 0.00 65 1014.3
20260905004517 65 22 0.0 2.6 0.00 0.00 0.00 66 1014.1
20260905003018 65 30 0.0 3.5 0.00 0.00 0.00 69 1014.1
20260905001516 65 290 0.0 2.6 0.00 0.00 0.00 67 1014.0
20260905000016 65 216 0.0 2.6 0.00 0.00 0.00 69 1014.0
20260904234516 65 167 0.0 1.7 0.00 0.00 0.00 68 1014.0
20260904233016 64 320 0.0 3.5 0.00 0.00 0.00 68 1013.9
20260904231514 64 331 0.9 4.3 0.00 0.00 0.00 70 1014.0
20260904230020 64 338 0.9 4.3 0.00 0.00 0.00 70 1014.1
20260904224522 65 100 1.7 5.2 0.00 0.00 0.00 69 1014.0
20260904223012 65 117 0.0 3.5 0.00 0.00 0.00 67 1014.0
20260904221516 66 163 0.9 3.5 0.00 0.00 0.00 64 1014.0
20260904220012 67 228 0.0 5.2 0.00 0.00 0.00 64 1014.1
20260904214517 67 51 0.0 3.5 0.00 0.00 0.00 68 1014.0
20260904213013 68 128 0.9 6.1 0.00 0.00 0.00 62 1013.9
20260904211509 65 186 1.7 4.3 0.00 0.00 0.00 69 1013.9
20260904210008 66 179 0.9 4.3 0.00 0.00 0.00 69 1013.9
20260904204509 68 319 0.0 3.5 0.00 0.00 0.00 66 1013.9
20260904203007 65 259 1.7 4.3 0.00 0.00 0.00 70 1013.8
20260904201503 64 154 2.6 6.1 0.00 0.00 0.00 73 1013.7
20260904200004 63 185 0.9 6.1 0.00 0.00 0.00 72 1013.7
20260904194609 65 242 0.0 6.1 0.00 0.00 0.00 74 1013.8
20260904193100 62 171 1.7 6.1 0.00 0.00 0.00 75 1013.9
20260904191559 63 177 0.9 3.5 0.00 0.00 0.00 77 1013.7
20260904190059 61 182 0.0 3.5 0.00 0.00 0.00 78 1013.7
20260904184557 64 259 1.7 3.5 0.00 0.00 0.00 74 1013.7
20260904183111 63 186 0.0 4.3 0.00 0.00 0.00 77 1013.7
20260904181553 62 160 0.0 4.3 0.00 0.00 0.00 78 1013.5
20260904180051 62 40 0.0 5.2 0.00 0.00 0.00 80 1013.5
20260904174548 60 173 0.9 6.1 0.00 0.00 0.00 81 1013.6
20260904173045 59 296 0.9 7.0 0.00 0.00 0.00 84 1013.6
20260904171543 58 174 0.9 4.3 0.00 0.00 0.00 85 1013.5
20260904170039 57 95 1.7 4.3 0.00 0.00 0.00 86 1013.6
20260904164536 57 157 0.9 2.6 0.00 0.00 0.00 87 1013.4
20260904163034 57 175 1.7 4.3 0.00 0.00 0.00 88 1013.4
20260904161531 56 125 0.0 1.7 0.00 0.00 0.00 90 1013.3
20260904160027 56 125 0.9 2.6 0.00 0.00 0.00 90 1013.3
20260904154525 55 125 0.0 0.9 0.00 0.00 0.00 91 1013.2
20260904153023 54 125 0.0 0.0 0.00 0.00 0.00 92 1013.2
20260904151521 54 125 0.0 0.0 0.00 0.00 0.00 92 1013.0
20260904150025 53 125 0.0 0.0 0.00 0.00 0.00 92 1012.9
20260904144513 53 125 0.0 0.0 0.00 0.00 0.00 92 1012.6
20260904143011 52 125 0.0 0.0 0.00 0.00 0.00 92 1012.5
20260904141507 52 125 0.0 0.0 0.00 0.00 0.00 92 1012.3
20260904140005 52 125 0.0 0.0 0.00 0.00 0.00 92 1012.1
20260904134504 52 125 0.0 0.0 0.00 0.00 0.00 92 1011.9
20260904133002 52 125 0.0 0.0 0.00 0.00 0.00 91 1011.9
20260904131503 52 125 0.0 0.0 0.00 0.00 0.00 92 1011.7
20260904130107 52 125 0.0 0.0 0.00 0.00 0.00 92 1011.8